DW7854 Weather Reports


time (UTC)temp
F
wind
direction
speed
knots
gust
knots
rain 1hr
in
rain 24hr
in
rain mn
in
humidity
%
barometer
mb
20260902213004 97 111 2.6 8.7 0.00 0.00 0.00 48 1011.8
20260902212903 98 144 5.2 8.7 0.00 0.00 0.00 47 1012.1
20260902212003 98 141 4.3 10.4 0.00 0.00 0.00 47 1012.2
20260902211503 98 132 6.1 10.4 0.00 0.00 0.00 47 1012.0
20260902211103 98 136 4.3 9.6 0.00 0.00 0.00 47 1012.4
20260902210203 98 148 6.1 9.6 0.00 0.00 0.00 47 1012.6
20260902210106 98 172 5.2 10.4 0.00 0.00 0.00 47 1012.3
20260902205306 98 126 5.2 10.4 0.00 0.00 0.00 48 1012.8
20260902204509 98 86 6.1 9.6 0.00 0.00 0.00 47 1012.6
20260902204403 98 139 5.2 10.4 0.00 0.00 0.00 48 1012.9
20260902203503 98 152 5.2 11.3 0.00 0.00 0.00 46 1013.1
20260902203105 98 127 5.2 13.9 0.00 0.00 0.00 46 1012.7
20260902202603 98 148 5.2 13.0 0.00 0.00 0.00 47 1013.1
20260902201703 98 161 7.0 12.2 0.00 0.00 0.00 47 1013.2
20260902201611 98 183 6.1 12.2 0.00 0.00 0.00 47 1012.8
20260902200803 98 160 7.0 12.2 0.00 0.00 0.00 47 1013.3
20260902200009 97 137 7.0 12.2 0.00 0.00 0.00 46 1013.0
20260902195003 98 153 6.1 10.4 0.00 0.00 0.00 47 1013.3
20260902194605 97 163 5.2 10.4 0.00 0.00 0.00 46 1013.1
20260902194103 97 142 5.2 10.4 0.00 0.00 0.00 49 1013.5
20260902193203 97 165 5.2 9.6 0.00 0.00 0.00 51 1013.8
20260902193004 97 161 5.2 12.2 0.00 0.00 0.00 51 1013.4
20260902191505 97 181 4.3 10.4 0.00 0.00 0.00 48 1013.5
20260902191403 98 148 4.3 8.7 0.00 0.00 0.00 48 1013.9
20260902190503 97 158 4.3 10.4 0.00 0.00 0.00 51 1013.9
20260902190104 97 128 4.3 10.4 0.00 0.00 0.00 51 1013.5
20260902185603 97 151 4.3 8.7 0.00 0.00 0.00 52 1013.9
20260902184504 96 119 2.6 12.2 0.00 0.00 0.00 52 1013.7
20260902183803 96 141 3.5 8.7 0.00 0.00 0.00 53 1014.2
20260902183106 95 103 3.5 10.4 0.00 0.00 0.00 52 1014.1
20260902182903 95 140 4.3 13.0 0.00 0.00 0.00 52 1014.5
20260902182004 95 149 5.2 13.0 0.00 0.00 0.00 53 1014.7
20260902181506 95 145 4.3 11.3 0.00 0.00 0.00 54 1014.4
20260902180203 95 145 4.3 11.3 0.00 0.00 0.00 53 1015.0
20260902180008 95 158 5.2 9.6 0.00 0.00 0.00 53 1014.7
20260902174505 94 201 5.2 10.4 0.00 0.00 0.00 55 1015.0
20260902173503 93 146 6.1 13.0 0.00 0.00 0.00 56 1015.4
20260902173104 93 105 4.3 13.0 0.00 0.00 0.00 56 1015.1
20260902172603 93 138 5.2 8.7 0.00 0.00 0.00 56 1015.5
20260902171703 93 127 6.1 11.3 0.00 0.00 0.00 56 1015.8
20260902171505 92 80 6.1 11.3 0.00 0.00 0.00 56 1015.4
20260902170803 93 153 5.2 10.4 0.00 0.00 0.00 54 1015.8
20260902170004 92 126 5.2 10.4 0.00 0.00 0.00 58 1015.5
20260902165903 92 153 6.1 10.4 0.00 0.00 0.00 58 1015.9
20260902165003 92 158 6.1 12.2 0.00 0.00 0.00 58 1016.0
20260902164608 91 163 5.2 12.2 0.00 0.00 0.00 59 1015.7
20260902164106 91 146 6.1 11.3 0.00 0.00 0.00 60 1016.1
20260902163203 92 157 7.0 11.3 0.00 0.00 0.00 60 1016.1
20260902163104 91 186 7.0 11.3 0.00 0.00 0.00 59 1015.8
20260902162306 92 160 5.2 8.7 0.00 0.00 0.00 60 1016.1
20260902161504 91 121 5.2 11.3 0.00 0.00 0.00 60 1015.8
20260902161403 91 157 5.2 11.3 0.00 0.00 0.00 61 1016.1
20260902160503 91 139 5.2 9.6 0.00 0.00 0.00 62 1016.2
20260902160010 90 174 5.2 7.8 0.00 0.00 0.00 62 1015.7
20260902154703 90 122 4.3 8.7 0.00 0.00 0.00 63 1016.1
20260902154607 89 148 2.6 8.7 0.00 0.00 0.00 62 1015.8
20260902153803 90 136 3.5 7.8 0.00 0.00 0.00 63 1016.0
20260902153105 88 144 3.5 7.8 0.00 0.00 0.00 66 1015.7
20260902152903 89 135 3.5 7.8 0.00 0.00 0.00 66 1016.0
20260902152003 88 107 3.5 7.0 0.00 0.00 0.00 68 1016.0
20260902151506 87 113 2.6 7.0 0.00 0.00 0.00 70 1015.6
20260902151103 87 95 3.5 7.8 0.00 0.00 0.00 70 1015.9
20260902150203 87 136 4.3 8.7 0.00 0.00 0.00 70 1015.8
20260902150106 87 57 2.6 8.7 0.00 0.00 0.00 70 1015.4
20260902145305 86 129 3.5 6.1 0.00 0.00 0.00 73 1015.8
20260902144505 86 64 2.6 7.8 0.00 0.00 0.00 73 1015.4
20260902144403 86 91 2.6 7.0 0.00 0.00 0.00 73 1015.8
20260902143503 86 164 2.6 5.2 0.00 0.00 0.00 75 1015.7
20260902143009 85 155 2.6 6.1 0.00 0.00 0.00 75 1015.4
20260902141703 85 156 3.5 7.8 0.00 0.00 0.00 78 1015.9
20260902141505 84 160 2.6 7.8 0.00 0.00 0.00 78 1015.5
20260902140803 84 134 2.6 6.1 0.00 0.00 0.00 78 1015.9
20260902140009 83 165 2.6 6.1 0.00 0.00 0.00 78 1015.7
20260902135903 84 159 2.6 6.1 0.00 0.00 0.00 79 1016.1
20260902135003 82 124 1.7 5.2 0.00 0.00 0.00 80 1015.9
20260902134603 82 157 1.7 5.2 0.00 0.00 0.00 81 1015.5
20260902134103 82 108 2.6 6.1 0.00 0.00 0.00 82 1015.9
20260902133203 80 147 0.9 2.6 0.00 0.00 0.00 84 1015.9
20260902133109 80 146 0.0 2.6 0.00 0.00 0.00 84 1015.5
20260902132306 79 318 0.0 1.7 0.00 0.00 0.00 86 1015.9
20260902131503 77 319 0.0 2.6 0.00 0.00 0.00 87 1015.6
20260902131403 78 337 0.0 2.6 0.00 0.00 0.00 87 1016.0
20260902130503 76 25 0.9 1.7 0.00 0.00 0.00 88 1016.0
20260902130005 75 10 0.0 1.7 0.00 0.00 0.00 89 1015.6
20260902124703 75 16 0.0 0.9 0.00 0.00 0.00 90 1016.0
20260902124604 74 15 0.0 0.9 0.00 0.00 0.00 90 1015.6
20260902123017 74 36 0.0 2.6 0.00 0.00 0.00 89 1015.5
20260902122903 74 51 0.9 2.6 0.00 0.00 0.00 89 1015.8
20260902122003 74 56 0.0 1.7 0.00 0.00 0.00 89 1015.7
20260902121508 74 55 0.0 1.7 0.00 0.00 0.00 89 1015.2
20260902121103 74 42 0.0 1.7 0.00 0.00 0.00 89 1015.5
20260902120203 74 67 0.9 2.6 0.00 0.00 0.00 89 1015.5
20260902120103 74 32 0.0 2.6 0.00 0.00 0.00 89 1015.2
20260902115307 74 47 0.9 2.6 0.00 0.00 0.00 89 1015.5
20260902114605 74 32 0.0 1.7 0.00 0.00 0.00 88 1015.1
20260902113503 74 39 0.9 2.6 0.00 0.00 0.00 88 1015.3
20260902113005 74 26 0.9 2.6 0.00 0.00 0.00 88 1015.0
20260902112603 75 104 0.9 2.6 0.00 0.00 0.00 88 1015.3
20260902111703 75 0 0.0 0.0 0.00 0.00 0.00 88 1015.3
20260902111514 74 156 0.0 0.0 0.00 0.00 0.00 88 1014.9
20260902110019 75 156 0.0 0.0 0.00 0.00 0.00 87 1015.0
20260902105903 75 156 0.0 0.9 0.00 0.00 0.00 87 1015.3
20260902105003 75 155 0.9 1.7 0.00 0.00 0.00 87 1015.3
20260902104612 75 156 0.0 1.7 0.00 0.00 0.00 86 1014.9
20260902104103 76 156 0.0 0.9 0.00 0.00 0.00 85 1015.2
20260902103203 76 155 0.9 1.7 0.00 0.00 0.00 86 1015.1
20260902103007 75 156 0.0 1.7 0.00 0.00 0.00 86 1014.8
20260902102307 76 155 0.9 1.7 0.00 0.00 0.00 85 1015.2
20260902101605 76 156 0.9 1.7 0.00 0.00 0.00 85 1014.7
20260902101403 76 155 0.9 1.7 0.00 0.00 0.00 85 1015.1
20260902100104 76 156 0.0 0.0 0.00 0.00 0.00 85 1014.7
20260902094504 76 156 0.0 0.0 0.00 0.00 0.00 84 1014.5
20260902093803 76 156 0.0 0.9 0.00 0.00 0.00 84 1014.8
20260902093003 76 156 0.0 1.7 0.00 0.00 0.00 84 1014.5
20260902092903 76 156 0.0 1.7 0.00 0.00 0.00 84 1014.8
20260902092003 76 155 0.0 1.7 0.00 0.00 0.00 83 1014.8
20260902091504 76 156 0.0 1.7 0.00 0.00 0.00 83 1014.5
20260902091103 76 155 0.9 1.7 0.00 0.00 0.00 83 1014.6
20260902090203 77 0 0.0 0.0 0.00 0.00 0.00 82 1014.7
20260902090006 76 156 0.0 0.0 0.00 0.00 0.00 82 1014.4
20260902085306 77 0 0.0 0.0 0.00 0.00 0.00 81 1014.7
20260902084505 76 156 0.0 0.0 0.00 0.00 0.00 81 1014.5
20260902084403 77 0 0.0 0.0 0.00 0.00 0.00 81 1014.8
20260902083503 77 0 0.0 0.0 0.00 0.00 0.00 81 1014.8
20260902083111 77 156 0.0 0.0 0.00 0.00 0.00 81 1014.5
20260902082603 77 0 0.0 0.0 0.00 0.00 0.00 80 1014.8
20260902081703 78 0 0.0 0.0 0.00 0.00 0.00 80 1014.8
20260902081508 77 156 0.0 0.0 0.00 0.00 0.00 79 1014.5
20260902080803 78 0 0.0 0.0 0.00 0.00 0.00 79 1014.8
20260902080008 78 156 0.0 0.0 0.00 0.00 0.00 78 1014.4
20260902074604 78 156 0.0 0.0 0.00 0.00 0.00 78 1014.5
20260902074103 79 0 0.0 0.0 0.00 0.00 0.00 77 1014.8
20260902073203 79 155 0.0 0.9 0.00 0.00 0.00 76 1014.9
20260902073105 79 156 0.0 0.9 0.00 0.00 0.00 76 1014.6
20260902071503 80 156 0.0 0.9 0.00 0.00 0.00 74 1014.7
20260902071403 80 156 0.0 0.9 0.00 0.00 0.00 74 1015.0
20260902070503 80 0 0.0 0.0 0.00 0.00 0.00 73 1015.1
20260902070108 80 156 0.0 0.0 0.00 0.00 0.00 73 1014.7
20260902065603 81 0 0.0 0.0 0.00 0.00 0.00 72 1015.2
20260902064703 81 0 0.0 0.0 0.00 0.00 0.00 71 1015.2
20260902064502 81 156 0.0 0.9 0.00 0.00 0.00 71 1014.9
20260902063803 81 156 0.0 0.9 0.00 0.00 0.00 71 1015.2
20260902063109 81 156 0.0 1.7 0.00 0.00 0.00 70 1014.7
20260902062903 81 155 0.9 1.7 0.00 0.00 0.00 70 1015.1
20260902062003 82 155 0.9 2.6 0.00 0.00 0.00 70 1015.1
20260902061614 81 156 0.0 2.6 0.00 0.00 0.00 70 1014.7
20260902061103 82 155 1.7 3.5 0.00 0.00 0.00 69 1015.1
20260902060203 82 154 1.7 2.6 0.00 0.00 0.00 69 1015.1
20260902060005 82 154 0.9 3.5 0.00 0.00 0.00 68 1014.7
20260902055306 83 154 2.6 3.5 0.00 0.00 0.00 68 1014.9
20260902054616 83 144 1.7 4.3 0.00 0.00 0.00 67 1014.5
20260902054403 83 148 2.6 7.0 0.00 0.00 0.00 67 1014.8
20260902053503 84 152 1.7 5.2 0.00 0.00 0.00 66 1014.8
20260902053016 83 153 0.9 4.3 0.00 0.00 0.00 66 1014.5
20260902051703 84 143 2.6 4.3 0.00 0.00 0.00 65 1014.6
20260902051604 84 197 2.6 4.3 0.00 0.00 0.00 65 1014.3
20260902050803 84 146 3.5 6.1 0.00 0.00 0.00 64 1014.6
20260902050006 84 125 3.5 6.1 0.00 0.00 0.00 64 1014.2
20260902045903 84 145 3.5 5.2 0.00 0.00 0.00 64 1014.4
20260902045003 84 142 2.6 5.2 0.00 0.00 0.00 63 1014.5
20260902044509 84 129 1.7 6.1 0.00 0.00 0.00 63 1014.2
20260902043203 85 122 0.9 3.5 0.00 0.00 0.00 62 1014.4
20260902043005 85 135 1.7 3.5 0.00 0.00 0.00 62 1014.0
20260902042308 85 133 1.7 2.6 0.00 0.00 0.00 61 1014.3
20260902041508 85 150 1.7 4.3 0.00 0.00 0.00 61 1014.1
20260902041403 86 124 1.7 4.3 0.00 0.00 0.00 61 1014.4
20260902040503 86 123 1.7 4.3 0.00 0.00 0.00 61 1014.4
20260902040103 85 88 0.9 4.3 0.00 0.00 0.00 60 1014.1
20260902035603 86 138 0.9 4.3 0.00 0.00 0.00 60 1014.4
20260902034703 86 133 1.7 3.5 0.00 0.00 0.00 60 1014.3
20260902034603 86 111 0.9 3.5 0.00 0.00 0.00 60 1014.0
20260902033803 86 133 2.6 3.5 0.00 0.00 0.00 60 1014.4
20260902033008 86 139 1.7 4.3 0.00 0.00 0.00 60 1014.1
20260902032903 86 146 2.6 4.3 0.00 0.00 0.00 60 1014.4
20260902032003 86 144 2.6 5.2 0.00 0.00 0.00 60 1014.3
20260902031605 86 124 1.7 5.2 0.00 0.00 0.00 60 1013.9
20260902031103 87 144 2.6 6.1 0.00 0.00 0.00 61 1014.1
20260902030005 86 165 2.6 5.2 0.00 0.00 0.00 61 1013.6
20260902025306 87 145 1.7 5.2 0.00 0.00 0.00 61 1013.9
20260902024504 87 143 0.9 4.3 0.00 0.00 0.00 61 1013.5
20260902023503 88 139 1.7 5.2 0.00 0.00 0.00 61 1013.7
20260902023009 87 137 0.9 6.1 0.00 0.00 0.00 62 1013.3
20260902022603 88 140 2.6 5.2 0.00 0.00 0.00 62 1013.6
20260902021703 88 143 2.6 5.2 0.00 0.00 0.00 63 1013.4
20260902021514 87 128 1.7 5.2 0.00 0.00 0.00 63 1013.0
20260902020006 88 142 0.9 4.3 0.00 0.00 0.00 63 1012.8
20260902015903 88 133 1.7 4.3 0.00 0.00 0.00 63 1013.1
20260902015003 89 133 0.9 2.6 0.00 0.00 0.00 63 1012.9
20260902014509 89 133 0.0 1.7 0.00 0.00 0.00 62 1012.5
20260902014103 89 133 0.0 1.7 0.00 0.00 0.00 62 1012.7
20260902013203 90 133 0.0 1.7 0.00 0.00 0.00 61 1012.6
20260902013105 90 133 0.0 1.7 0.00 0.00 0.00 60 1012.3
20260902012308 90 133 0.9 2.6 0.00 0.00 0.00 59 1012.5
20260902011506 91 133 0.0 2.6 0.00 0.00 0.00 58 1012.2
20260902011403 91 133 0.0 2.6 0.00 0.00 0.00 58 1012.5
20260902010503 92 0 0.0 0.0 0.00 0.00 0.00 57 1012.5
20260902010105 92 133 0.0 0.0 0.00 0.00 0.00 56 1012.1
20260902005603 92 0 0.0 0.0 0.00 0.00 0.00 55 1012.4
20260902004703 93 0 0.0 0.0 0.00 0.00 0.00 55 1012.3
20260902004506 93 133 0.0 0.0 0.00 0.00 0.00 55 1011.9
20260902003803 94 133 0.0 0.9 0.00 0.00 0.00 53 1012.2
20260902003008 94 133 0.0 1.7 0.00 0.00 0.00 52 1011.9
20260902002903 94 133 0.9 1.7 0.00 0.00 0.00 52 1012.2
20260902002003 95 134 0.9 1.7 0.00 0.00 0.00 51 1012.3
20260902001508 94 135 0.9 2.6 0.00 0.00 0.00 51 1012.0
20260902001103 95 142 1.7 3.5 0.00 0.00 0.00 50 1012.3
20260902000011 95 153 0.9 4.3 0.00 0.00 0.00 50 1012.0
20260901235307 95 138 2.6 4.3 0.00 0.00 0.00 49 1012.4
20260901234503 95 121 1.7 6.1 0.00 0.00 0.00 49 1012.1
20260901234403 96 145 3.5 6.1 0.00 0.00 0.00 49 1012.4
20260901233503 96 161 3.5 7.8 0.00 0.00 0.00 48 1012.5
20260901233111 96 149 1.7 7.8 0.00 0.00 0.00 48 1012.2
20260901232603 97 138 2.6 6.1 0.00 0.00 0.00 47 1012.6
20260901231703 98 138 3.5 8.7 0.00 0.00 0.00 46 1012.6
20260901231609 97 114 3.5 8.7 0.00 0.00 0.00 47 1012.3
20260901230803 98 115 2.6 7.0 0.00 0.00 0.00 46 1012.6
20260901230012 97 108 0.9 6.1 0.00 0.00 0.00 46 1012.3
20260901225903 98 112 3.5 7.0 0.00 0.00 0.00 46 1012.7
20260901225003 98 155 4.3 9.6 0.00 0.00 0.00 46 1012.7
20260901224504 98 127 2.6 9.6 0.00 0.00 0.00 47 1012.5
20260901224103 99 169 5.2 9.6 0.00 0.00 0.00 46 1012.7
20260901223008 98 161 6.1 11.3 0.00 0.00 0.00 46 1012.4
20260901222306 99 157 6.1 10.4 0.00 0.00 0.00 45 1012.9
20260901221505 99 159 6.1 9.6 0.00 0.00 0.00 45 1012.6
20260901221403 99 151 5.2 9.6 0.00 0.00 0.00 45 1012.9
20260901220503 99 154 5.2 7.8 0.00 0.00 0.00 45 1012.8
20260901220134 99 171 5.2 8.7 0.00 0.00 0.00 46 1012.6
20260901214703 100 158 5.2 9.6 0.00 0.00 0.00 45 1012.9
20260901214503 99 137 4.3 9.6 0.00 0.00 0.00 44 1012.6
20260901213802 100 156 6.1 9.6 0.00 0.00 0.00 45 1013.0
20260901213120 100 132 7.0 10.4 0.00 0.00 0.00 44 1012.7